Time,TemperatureF,DewpointF,PressureIn,WindDirection,WindDirectionDegrees,WindSpeedMPH,WindSpeedGustMPH,Humidity,HourlyPrecipIn,Conditions,Clouds,dailyrainin,SoftwareType,DateUTC
2013-01-06 00:13:00,22.7,18.0,30.27,North,360,3.0,-999.0,82,-99.99,,,0.00,weatherlink.com 1.10,2013-01-06 06:13:00,
2013-01-06 00:28:00,22.8,18.0,30.27,NW,313,11.0,-999.0,82,-99.99,,,0.00,weatherlink.com 1.10,2013-01-06 06:28:00,
2013-01-06 00:43:00,22.8,18.0,30.27,NNW,346,6.0,-999.0,82,-99.99,,,0.00,weatherlink.com 1.10,2013-01-06 06:43:00,
2013-01-06 00:58:00,22.8,18.0,30.27,NNW,348,2.0,-999.0,82,-99.99,,,0.00,weatherlink.com 1.10,2013-01-06 06:58:00,
2013-01-06 01:13:00,22.9,18.0,30.28,NW,309,14.0,-999.0,82,-99.99,,,0.00,weatherlink.com 1.10,2013-01-06 07:13:00,
2013-01-06 01:28:00,23.1,19.0,30.28,NW,316,4.0,-999.0,83,-99.99,,,0.00,weatherlink.com 1.10,2013-01-06 07:28:00,
2013-01-06 01:43:00,23.1,18.0,30.28,NW,326,2.0,-999.0,82,-99.99,,,0.00,weatherlink.com 1.10,2013-01-06 07:43:00,
2013-01-06 01:58:00,23.2,19.0,30.29,WNW,289,3.0,-999.0,82,-99.99,,,0.00,weatherlink.com 1.10,2013-01-06 07:58:00,
2013-01-06 02:14:00,22.9,18.0,30.30,NW,312,6.0,-999.0,81,-99.99,,,0.00,weatherlink.com 1.10,2013-01-06 08:14:00,
2013-01-06 02:29:00,22.4,18.0,30.30,NW,313,3.0,-999.0,82,-99.99,,,0.00,weatherlink.com 1.10,2013-01-06 08:29:00,
2013-01-06 02:44:00,22.0,17.0,30.30,West,275,3.0,-999.0,82,-99.99,,,0.00,weatherlink.com 1.10,2013-01-06 08:44:00,
2013-01-06 02:59:00,21.5,17.0,30.30,WNW,292,1.0,-999.0,83,-99.99,,,0.00,weatherlink.com 1.10,2013-01-06 08:59:00,
2013-01-06 03:14:00,21.1,17.0,30.30,NW,310,3.0,-999.0,84,-99.99,,,0.00,weatherlink.com 1.10,2013-01-06 09:14:00,
2013-01-06 03:29:00,20.9,17.0,30.31,WNW,287,0.0,-999.0,84,-99.99,,,0.00,weatherlink.com 1.10,2013-01-06 09:29:00,
2013-01-06 03:44:00,20.6,17.0,30.33,NW,310,4.0,-999.0,84,-99.99,,,0.00,weatherlink.com 1.10,2013-01-06 09:44:00,
2013-01-06 03:59:00,20.4,16.0,30.33,WNW,302,2.0,-999.0,84,-99.99,,,0.00,weatherlink.com 1.10,2013-01-06 09:59:00,
2013-01-06 04:14:00,20.3,16.0,30.32,NW,308,2.0,-999.0,84,-99.99,,,0.00,weatherlink.com 1.10,2013-01-06 10:14:00,
2013-01-06 04:29:00,20.0,16.0,30.32,WNW,285,1.0,-999.0,84,-99.99,,,0.00,weatherlink.com 1.10,2013-01-06 10:29:00,
2013-01-06 04:44:00,19.8,16.0,30.32,West,277,0.0,-999.0,84,-99.99,,,0.00,weatherlink.com 1.10,2013-01-06 10:44:00,
2013-01-06 04:59:00,19.6,16.0,30.32,WNW,290,1.0,-999.0,84,-99.99,,,0.00,weatherlink.com 1.10,2013-01-06 10:59:00,
2013-01-06 05:14:00,19.4,15.0,30.32,WNW,294,0.0,-999.0,84,-99.99,,,0.00,weatherlink.com 1.10,2013-01-06 11:14:00,
2013-01-06 05:29:00,19.1,15.0,30.32,WNW,286,0.0,-999.0,84,-99.99,,,0.00,weatherlink.com 1.10,2013-01-06 11:29:00,
2013-01-06 05:44:00,18.9,15.0,30.32,WNW,292,0.0,-999.0,84,-99.99,,,0.00,weatherlink.com 1.10,2013-01-06 11:44:00,
2013-01-06 05:59:00,18.5,15.0,30.33,WNW,292,0.0,-999.0,84,-99.99,,,0.00,weatherlink.com 1.10,2013-01-06 11:59:00,
2013-01-06 06:14:00,18.0,14.0,30.33,West,270,0.0,-999.0,85,-99.99,,,0.00,weatherlink.com 1.10,2013-01-06 12:14:00,
2013-01-06 06:29:00,17.7,14.0,30.33,West,269,0.0,-999.0,86,-99.99,,,0.00,weatherlink.com 1.10,2013-01-06 12:29:00,
2013-01-06 06:44:00,17.5,14.0,30.34,West,269,1.0,-999.0,86,-99.99,,,0.00,weatherlink.com 1.10,2013-01-06 12:44:00,
2013-01-06 06:59:00,17.1,14.0,30.34,West,269,0.0,-999.0,86,-99.99,,,0.00,weatherlink.com 1.10,2013-01-06 12:59:00,
2013-01-06 07:14:00,16.8,13.0,30.34,West,269,0.0,-999.0,86,-99.99,,,0.00,weatherlink.com 1.10,2013-01-06 13:14:00,
2013-01-06 07:29:00,16.2,13.0,30.35,West,269,0.0,-999.0,87,-99.99,,,0.00,weatherlink.com 1.10,2013-01-06 13:29:00,
2013-01-06 07:44:00,15.9,13.0,30.35,West,269,0.0,-999.0,87,-99.99,,,0.00,weatherlink.com 1.10,2013-01-06 13:44:00,
2013-01-06 07:59:00,15.8,13.0,30.36,West,269,0.0,-999.0,87,-99.99,,,0.00,weatherlink.com 1.10,2013-01-06 13:59:00,
2013-01-06 08:14:00,15.4,12.0,30.36,West,269,0.0,-999.0,86,-99.99,,,0.00,weatherlink.com 1.10,2013-01-06 14:14:00,
2013-01-06 08:29:00,15.4,12.0,30.36,West,269,0.0,-999.0,87,-99.99,,,0.00,weatherlink.com 1.10,2013-01-06 14:29:00,
2013-01-06 08:44:00,16.6,14.0,30.36,West,269,0.0,-999.0,89,-99.99,,,0.00,weatherlink.com 1.10,2013-01-06 14:44:00,
2013-01-06 08:59:00,19.4,16.0,30.37,West,269,0.0,-999.0,85,-99.99,,,0.00,weatherlink.com 1.10,2013-01-06 14:59:00,
2013-01-06 09:14:00,21.4,16.0,30.37,West,268,0.0,-999.0,80,-99.99,,,0.00,weatherlink.com 1.10,2013-01-06 15:14:00,
2013-01-06 09:29:00,22.5,17.0,30.37,West,265,0.0,-999.0,78,-99.99,,,0.00,weatherlink.com 1.10,2013-01-06 15:29:00,
2013-01-06 09:44:00,22.5,15.0,30.38,WSW,246,0.0,-999.0,74,-99.99,,,0.00,weatherlink.com 1.10,2013-01-06 15:44:00,
2013-01-06 09:59:00,23.0,17.0,30.39,WSW,238,0.0,-999.0,77,-99.99,,,0.00,weatherlink.com 1.10,2013-01-06 15:59:00,
2013-01-06 10:14:00,24.0,17.0,30.39,SW,222,2.0,-999.0,76,-99.99,,,0.00,weatherlink.com 1.10,2013-01-06 16:14:00,
2013-01-06 10:29:00,24.5,18.0,30.39,SW,215,0.0,-999.0,75,-99.99,,,0.00,weatherlink.com 1.10,2013-01-06 16:29:00,
2013-01-06 10:45:00,25.0,18.0,30.39,SW,225,3.0,-999.0,74,-99.99,,,0.00,weatherlink.com 1.10,2013-01-06 16:45:00,
2013-01-06 11:00:00,25.2,18.0,30.39,SSW,209,0.0,-999.0,73,-99.99,,,0.00,weatherlink.com 1.10,2013-01-06 17:00:00,
2013-01-06 11:15:00,26.2,19.0,30.39,SW,214,4.0,-999.0,73,-99.99,,,0.00,weatherlink.com 1.10,2013-01-06 17:15:00,
2013-01-06 11:30:00,27.4,19.0,30.38,SW,214,1.0,-999.0,71,-99.99,,,0.00,weatherlink.com 1.10,2013-01-06 17:30:00,
2013-01-06 11:45:00,28.5,20.0,30.37,SW,214,0.0,-999.0,70,-99.99,,,0.00,weatherlink.com 1.10,2013-01-06 17:45:00,
2013-01-06 12:00:00,29.2,20.0,30.36,SW,214,1.0,-999.0,68,-99.99,,,0.00,weatherlink.com 1.10,2013-01-06 18:00:00,
2013-01-06 12:15:00,30.7,21.0,30.35,SSW,212,0.0,-999.0,68,-99.99,,,0.00,weatherlink.com 1.10,2013-01-06 18:15:00,
2013-01-06 12:30:00,33.1,23.0,30.34,SSW,207,0.0,-999.0,67,-99.99,,,0.00,weatherlink.com 1.10,2013-01-06 18:30:00,
2013-01-06 12:45:00,34.3,23.0,30.34,South,187,0.0,-999.0,63,-99.99,,,0.00,weatherlink.com 1.10,2013-01-06 18:45:00,
2013-01-06 13:00:00,34.9,23.0,30.34,South,175,1.0,-999.0,63,-99.99,,,0.00,weatherlink.com 1.10,2013-01-06 19:00:00,
2013-01-06 13:15:00,35.2,24.0,30.32,South,175,3.0,-999.0,63,-99.99,,,0.00,weatherlink.com 1.10,2013-01-06 19:15:00,
2013-01-06 13:30:00,35.7,24.0,30.32,SSE,167,3.0,-999.0,62,-99.99,,,0.00,weatherlink.com 1.10,2013-01-06 19:30:00,
2013-01-06 13:45:00,36.1,24.0,30.32,SSE,160,0.0,-999.0,61,-99.99,,,0.00,weatherlink.com 1.10,2013-01-06 19:45:00,
2013-01-06 14:00:00,36.3,24.0,30.30,SSE,160,3.0,-999.0,61,-99.99,,,0.00,weatherlink.com 1.10,2013-01-06 20:00:00,
2013-01-06 14:15:00,36.9,24.0,30.31,SSE,155,1.0,-999.0,60,-99.99,,,0.00,weatherlink.com 1.10,2013-01-06 20:15:00,
2013-01-06 14:30:00,36.8,24.0,30.31,SSE,155,0.0,-999.0,61,-99.99,,,0.00,weatherlink.com 1.10,2013-01-06 20:30:00,
2013-01-06 14:45:00,37.6,25.0,30.30,SSE,155,2.0,-999.0,61,-99.99,,,0.00,weatherlink.com 1.10,2013-01-06 20:45:00,
2013-01-06 15:00:00,37.7,24.0,30.30,SSE,155,0.0,-999.0,58,-99.99,,,0.00,weatherlink.com 1.10,2013-01-06 21:00:00,
2013-01-06 15:15:00,37.7,24.0,30.30,SSE,155,0.0,-999.0,59,-99.99,,,0.00,weatherlink.com 1.10,2013-01-06 21:15:00,
2013-01-06 15:30:00,38.2,25.0,30.30,SSE,155,1.0,-999.0,59,-99.99,,,0.00,weatherlink.com 1.10,2013-01-06 21:30:00,
2013-01-06 15:45:00,37.0,25.0,30.30,SSE,155,0.0,-999.0,61,-99.99,,,0.00,weatherlink.com 1.10,2013-01-06 21:45:00,
2013-01-06 16:00:00,36.2,25.0,30.30,SSE,155,0.0,-999.0,63,-99.99,,,0.00,weatherlink.com 1.10,2013-01-06 22:00:00,
2013-01-06 16:15:00,35.6,25.0,30.30,SSE,155,1.0,-999.0,65,-99.99,,,0.00,weatherlink.com 1.10,2013-01-06 22:15:00,
2013-01-06 16:30:00,35.3,25.0,30.30,SSE,156,0.0,-999.0,65,-99.99,,,0.00,weatherlink.com 1.10,2013-01-06 22:30:00,
2013-01-06 16:45:00,34.3,24.0,30.30,SSE,155,0.0,-999.0,67,-99.99,,,0.00,weatherlink.com 1.10,2013-01-06 22:45:00,
2013-01-06 17:00:00,33.1,24.0,30.29,SSE,155,0.0,-999.0,69,-99.99,,,0.00,weatherlink.com 1.10,2013-01-06 23:00:00,
2013-01-06 17:15:00,32.1,24.0,30.28,SSE,155,0.0,-999.0,72,-99.99,,,0.00,weatherlink.com 1.10,2013-01-06 23:15:00,
2013-01-06 17:30:00,31.7,24.0,30.28,SSE,155,0.0,-999.0,72,-99.99,,,0.00,weatherlink.com 1.10,2013-01-06 23:30:00,
2013-01-06 17:45:00,31.4,24.0,30.28,SSE,155,0.0,-999.0,75,-99.99,,,0.00,weatherlink.com 1.10,2013-01-06 23:45:00,
2013-01-06 18:00:00,30.6,23.0,30.27,SSE,155,0.0,-999.0,74,-99.99,,,0.00,weatherlink.com 1.10,2013-01-07 00:00:00,
2013-01-06 18:15:00,30.1,23.0,30.27,SSE,155,0.0,-999.0,76,-99.99,,,0.00,weatherlink.com 1.10,2013-01-07 00:15:00,
2013-01-06 18:30:00,28.9,22.0,30.27,SSE,155,0.0,-999.0,76,-99.99,,,0.00,weatherlink.com 1.10,2013-01-07 00:30:00,
2013-01-06 18:45:00,27.5,22.0,30.27,SSE,155,0.0,-999.0,80,-99.99,,,0.00,weatherlink.com 1.10,2013-01-07 00:45:00,
2013-01-06 19:00:00,26.6,21.0,30.26,SSE,155,0.0,-999.0,80,-99.99,,,0.00,weatherlink.com 1.10,2013-01-07 01:00:00,
2013-01-06 19:15:00,25.7,21.0,30.25,SSE,155,0.0,-999.0,82,-99.99,,,0.00,weatherlink.com 1.10,2013-01-07 01:15:00,
2013-01-06 19:30:00,25.5,22.0,30.25,SSE,155,0.0,-999.0,85,-99.99,,,0.00,weatherlink.com 1.10,2013-01-07 01:30:00,
2013-01-06 19:45:00,25.2,22.0,30.24,SSE,155,0.0,-999.0,86,-99.99,,,0.00,weatherlink.com 1.10,2013-01-07 01:45:00,
2013-01-06 20:00:00,25.5,22.0,30.23,SSE,155,1.0,-999.0,87,-99.99,,,0.00,weatherlink.com 1.10,2013-01-07 02:00:00,
2013-01-06 20:15:00,26.3,23.0,30.23,SSE,155,1.0,-999.0,86,-99.99,,,0.00,weatherlink.com 1.10,2013-01-07 02:15:00,
2013-01-06 20:30:00,26.4,23.0,30.23,SSE,155,2.0,-999.0,86,-99.99,,,0.00,weatherlink.com 1.10,2013-01-07 02:30:00,
2013-01-06 20:45:00,27.1,24.0,30.22,SSE,155,2.0,-999.0,86,-99.99,,,0.00,weatherlink.com 1.10,2013-01-07 02:45:00,
2013-01-06 21:00:00,28.3,24.0,30.21,SSE,159,1.0,-999.0,85,-99.99,,,0.00,weatherlink.com 1.10,2013-01-07 03:00:00,
2013-01-06 21:15:00,28.8,25.0,30.21,SSE,161,1.0,-999.0,84,-99.99,,,0.00,weatherlink.com 1.10,2013-01-07 03:15:00,
2013-01-06 21:30:00,29.2,25.0,30.21,South,169,1.0,-999.0,83,-99.99,,,0.00,weatherlink.com 1.10,2013-01-07 03:30:00,
2013-01-06 21:45:00,28.8,24.0,30.21,SSE,155,2.0,-999.0,83,-99.99,,,0.00,weatherlink.com 1.10,2013-01-07 03:45:00,
2013-01-06 22:00:00,28.0,24.0,30.21,SSE,155,3.0,-999.0,83,-99.99,,,0.00,weatherlink.com 1.10,2013-01-07 04:00:00,
2013-01-06 22:15:00,27.4,23.0,30.20,SSE,155,3.0,-999.0,84,-99.99,,,0.00,weatherlink.com 1.10,2013-01-07 04:15:00,
2013-01-06 22:30:00,27.1,23.0,30.20,SSE,155,2.0,-999.0,85,-99.99,,,0.00,weatherlink.com 1.10,2013-01-07 04:30:00,
2013-01-06 22:45:00,27.6,24.0,30.19,SSE,157,3.0,-999.0,85,-99.99,,,0.00,weatherlink.com 1.10,2013-01-07 04:45:00,
2013-01-06 23:00:00,27.9,24.0,30.20,SSE,157,3.0,-999.0,84,-99.99,,,0.00,weatherlink.com 1.10,2013-01-07 05:00:00,
2013-01-06 23:15:00,27.2,23.0,30.19,SSE,157,1.0,-999.0,84,-99.99,,,0.00,weatherlink.com 1.10,2013-01-07 05:15:00,
2013-01-06 23:31:00,27.3,23.0,30.19,SSE,157,2.0,-999.0,85,-99.99,,,0.00,weatherlink.com 1.10,2013-01-07 05:31:00,
2013-01-06 23:46:00,27.4,24.0,30.19,SSE,157,4.0,-999.0,85,-99.99,,,0.00,weatherlink.com 1.10,2013-01-07 05:46:00,